User: anonymous   Login
Location: Unspecified
(0.0000°N, 0.0000°E)
Time: 02:28:32
(UTC+00:00)
Language:

ELEKTRO-L - Orbit

View from above orbital plane
View from above orbital plane
View from above satellite
View from above satellite

Ground track
Ground track

The orbit data is extracted from the following two-line orbital elements,

1 37344U 11001A   17145.65725171 -.00000279 +00000-0 +00000-0 0  9995
2 37344 002.3946 078.0591 0004085 282.1134 077.3485 01.00209862023305
Epoch (UTC): 25 May 2017 15:46:26
Eccentricity: 0.0004085
inclination: 2.3946°
perigee height: 35786 km
apogee height: 35821 km
right ascension of ascending node: 78.0591°
argument of perigee: 282.1134°
revolutions per day: 1.00209862
mean anomaly at epoch: 77.3485°
orbit number at epoch: 2330

The dashed part of the orbit path shows where the satellite is in the earth's shadow,  

DLR